,,Stat6,,Stat2,,Stat8,,Stat9,,Stat10,,Wind1,,Wind1,
time,status,PA1M_AVG,status,PR1M_SUM,status,RH1M_AVG,status,SR1M_AVG,status,TA1M_AVG,status,W1dAve1m,status,W1sAve1m,
2005-12-17, 00:00:00,VALID,917.746,VALID,0,VALID,100,VALID,-0.0849042,VALID,19.8962,VALID,204,VALID,0.510719,
2005-12-17, 00:01:01,VALID,917.736,VALID,0,VALID,100,VALID,-0.0509425,VALID,19.8962,VALID,222,VALID,0.407366,
2005-12-17, 00:02:01,VALID,917.697,VALID,0,VALID,100,VALID,-0.0509425,VALID,19.8929,VALID,249,VALID,0.061756,
2005-12-17, 00:03:00,VALID,917.694,VALID,0,VALID,100,VALID,-0.0509425,VALID,19.8862,VALID,249,VALID,0.00111607,
2005-12-17, 00:04:00,VALID,917.696,VALID,0,VALID,100,VALID,0.0169808,VALID,19.8919,VALID,247,VALID,0.020419,
2005-12-17, 00:05:01,VALID,917.693,VALID,0,VALID,100,VALID,0.0509425,VALID,19.875,VALID,246,VALID,0.048473,
2005-12-17, 00:06:01,VALID,917.684,VALID,0,VALID,100,VALID,0.0679233,VALID,19.8559,VALID,246,VALID,0.16495,
2005-12-17, 00:07:00,VALID,917.686,VALID,0,VALID,100,VALID,0.0339617,VALID,19.8564,VALID,246,VALID,0,
2005-12-17, 00:08:01,VALID,917.672,VALID,0,VALID,100,VALID,0.0509425,VALID,19.8499,VALID,263,VALID,0.27106,
2005-12-17, 00:09:01,VALID,917.678,VALID,0,VALID,100,VALID,0.101885,VALID,19.83,VALID,284,VALID,0.257068,
2005-12-17, 00:10:01,VALID,917.675,VALID,0,VALID,100,VALID,0.0169808,VALID,19.8136,VALID,340,VALID,0.606889,
2005-12-17, 00:11:01,VALID,917.669,VALID,0,VALID,100,VALID,0.0849042,VALID,19.8041,VALID,23,VALID,0.913035,
2005-12-17, 00:12:01,VALID,917.674,VALID,0,VALID,100,VALID,0.0679233,VALID,19.8044,VALID,29,VALID,0.480729,
2005-12-17, 00:13:01,VALID,917.69,VALID,0,VALID,100,VALID,0.0849042,VALID,19.7783,VALID,27,VALID,0.385617,
2005-12-17, 00:14:01,VALID,917.679,VALID,0,VALID,100,VALID,0.101885,VALID,19.7683,VALID,304,VALID,0.420201,
2005-12-17, 00:15:00,VALID,917.7,VALID,0,VALID,100,VALID,0.0849042,VALID,19.7785,VALID,297,VALID,0.178013,
2005-12-17, 00:16:01,VALID,917.703,VALID,0,VALID,100,VALID,0.0849042,VALID,19.7947,VALID,297,VALID,0.0278764,
2005-12-17, 00:17:00,VALID,917.713,VALID,0,VALID,100,VALID,0.0849042,VALID,19.7842,VALID,298,VALID,0.065625,
2005-12-17, 00:18:00,VALID,917.714,VALID,0,VALID,100,VALID,0.0509425,VALID,19.7815,VALID,298,VALID,0.26508,
2005-12-17, 00:19:00,VALID,917.725,VALID,0,VALID,100,VALID,0.101885,VALID,19.7912,VALID,298,VALID,0,
2005-12-17, 00:20:01,VALID,917.721,VALID,0,VALID,100,VALID,0.0339617,VALID,19.7949,VALID,298,VALID,0,
2005-12-17, 00:21:01,VALID,917.716,VALID,0,VALID,100,VALID,0.0169808,VALID,19.7907,VALID,295,VALID,0.0243056,
2005-12-17, 00:22:01,VALID,917.7,VALID,0,VALID,100,VALID,0.0849042,VALID,19.788,VALID,244,VALID,0.72311,
2005-12-17, 00:23:00,VALID,917.666,VALID,0,VALID,100,VALID,0.0169808,VALID,19.7785,VALID,254,VALID,0.488917,
2005-12-17, 00:24:01,VALID,917.634,VALID,0,VALID,100,VALID,0.0339617,VALID,19.775,VALID,295,VALID,0.371366,
2005-12-17, 00:25:01,VALID,917.632,VALID,0,VALID,100,VALID,0.0339617,VALID,19.7534,VALID,332,VALID,0.688058,
2005-12-17, 00:26:01,VALID,917.644,VALID,0,VALID,100,VALID,0.0679233,VALID,19.7367,VALID,16,VALID,0.375,
2005-12-17, 00:27:01,VALID,917.648,VALID,0,VALID,100,VALID,0.0679233,VALID,19.7241,VALID,24,VALID,0.415879,
2005-12-17, 00:28:01,VALID,917.64,VALID,0,VALID,100,VALID,0.0509425,VALID,19.7072,VALID,21,VALID,0.47619,
2005-12-17, 00:29:01,VALID,917.643,VALID,0,VALID,100,VALID,0.0339617,VALID,19.6977,VALID,12,VALID,0.00337358,
2005-12-17, 00:30:01,VALID,917.635,VALID,0,VALID,100,VALID,0.0509425,VALID,19.6783,VALID,13,VALID,0.0603693,
2005-12-17, 00:31:01,VALID,917.642,VALID,0,VALID,100,VALID,0.0509425,VALID,19.652,VALID,17,VALID,0.0677689,
2005-12-17, 00:32:01,VALID,917.639,VALID,0,VALID,100,VALID,0.0849042,VALID,19.6594,VALID,301,VALID,0.296494,
2005-12-17, 00:33:01,VALID,917.639,VALID,0,VALID,100,VALID,0.0169808,VALID,19.6457,VALID,262,VALID,0.171875,
2005-12-17, 00:34:01,VALID,917.629,VALID,0,VALID,100,VALID,0.0679233,VALID,19.643,VALID,262,VALID,0.0013587,
2005-12-17, 00:35:01,VALID,917.631,VALID,0,VALID,100,VALID,0.0849042,VALID,19.6363,VALID,262,VALID,0.0128906,
2005-12-17, 00:36:01,VALID,917.629,VALID,0,VALID,100,VALID,0.101885,VALID,19.6102,VALID,262,VALID,0.01875,
2005-12-17, 00:37:01,VALID,917.628,VALID,0,VALID,100,VALID,0.0849042,VALID,19.5972,VALID,262,VALID,0.0212054,
2005-12-17, 00:38:01,VALID,917.634,VALID,0,VALID,100,VALID,0.0339617,VALID,19.5751,VALID,262,VALID,0,
2005-12-17, 00:39:01,VALID,917.647,VALID,0,VALID,100,VALID,0.0509425,VALID,19.5682,VALID,262,VALID,0,
2005-12-17, 00:40:01,VALID,917.641,VALID,0,VALID,100,VALID,0.0339617,VALID,19.5622,VALID,262,VALID,0.105196,
2005-12-17, 00:41:01,VALID,917.64,VALID,0,VALID,100,VALID,0.0339617,VALID,19.5493,VALID,262,VALID,0.00961538,
2005-12-17, 00:42:01,VALID,917.63,VALID,0,VALID,100,VALID,0.0339617,VALID,19.5358,VALID,262,VALID,0,
2005-12-17, 00:43:01,VALID,917.62,VALID,0,VALID,100,VALID,0.0169808,VALID,19.553,VALID,262,VALID,0,
2005-12-17, 00:44:01,VALID,917.612,VALID,0,VALID,100,VALID,0,VALID,19.5366,VALID,262,VALID,0,
2005-12-17, 00:45:01,VALID,917.593,VALID,0,VALID,100,VALID,0.0339617,VALID,19.5169,VALID,262,VALID,0,
2005-12-17, 00:46:01,VALID,917.591,VALID,0,VALID,100,VALID,0.0169808,VALID,19.4911,VALID,262,VALID,0,
2005-12-17, 00:47:01,VALID,917.596,VALID,0,VALID,100,VALID,0.0169808,VALID,19.4687,VALID,262,VALID,0,
2005-12-17, 00:48:01,VALID,917.604,VALID,0,VALID,100,VALID,0.0509425,VALID,19.4523,VALID,262,VALID,0.117882,
2005-12-17, 00:49:01,VALID,917.604,VALID,0,VALID,100,VALID,0.118866,VALID,19.4381,VALID,262,VALID,0.0857558,
2005-12-17, 00:50:00,VALID,917.586,VALID,0,VALID,100,VALID,0.118866,VALID,19.4411,VALID,262,VALID,0,
2005-12-17, 00:51:00,VALID,917.554,VALID,0,VALID,100,VALID,0.101885,VALID,19.4225,VALID,262,VALID,0,
2005-12-17, 00:52:00,VALID,917.525,VALID,0,VALID,100,VALID,0.152827,VALID,19.3959,VALID,262,VALID,0,
2005-12-17, 00:53:00,VALID,917.521,VALID,0,VALID,100,VALID,0.152827,VALID,19.3993,VALID,262,VALID,0,
2005-12-17, 00:54:00,VALID,917.517,VALID,0,VALID,100,VALID,0.135847,VALID,19.3961,VALID,262,VALID,0,
2005-12-17, 00:55:00,VALID,917.514,VALID,0,VALID,100,VALID,0.118866,VALID,19.3703,VALID,260,VALID,0.110547,
2005-12-17, 00:56:00,VALID,917.497,VALID,0,VALID,100,VALID,0.135847,VALID,19.3673,VALID,311,VALID,0.437119,
2005-12-17, 00:57:00,VALID,917.486,VALID,0,VALID,100,VALID,0.169808,VALID,19.3735,VALID,280,VALID,0.0775799,
2005-12-17, 00:58:00,VALID,917.47,VALID,0,VALID,100,VALID,0.135847,VALID,19.3799,VALID,281,VALID,0.146984,
2005-12-17, 00:59:00,VALID,917.46,VALID,0,VALID,100,VALID,0.20377,VALID,19.3929,VALID,351,VALID,0.344097,
2005-12-17, 01:00:00,VALID,917.447,VALID,0,VALID,100,VALID,0.152827,VALID,19.3635,VALID,70,VALID,0.467262,
2005-12-17, 01:01:00,VALID,917.439,VALID,0,VALID,100,VALID,0.169808,VALID,19.3834,VALID,182,VALID,0.406994,
2005-12-17, 01:02:00,VALID,917.418,VALID,0,VALID,100,VALID,0.152827,VALID,19.4056,VALID,244,VALID,0.441883,
2005-12-17, 01:03:00,VALID,917.402,VALID,0,VALID,100,VALID,0.152827,VALID,19.4314,VALID,220,VALID,0.662388,
2005-12-17, 01:04:00,VALID,917.406,VALID,0,VALID,100,VALID,0.0169808,VALID,19.4595,VALID,239,VALID,0.45348,
2005-12-17, 01:05:00,VALID,917.391,VALID,0,VALID,100,VALID,0,VALID,19.4766,VALID,238,VALID,0.663132,
2005-12-17, 01:06:00,VALID,917.377,VALID,0,VALID,100,VALID,0.0169808,VALID,19.5055,VALID,231,VALID,1.00781,
2005-12-17, 01:07:00,VALID,917.354,VALID,0,VALID,100,VALID,0,VALID,19.5179,VALID,227,VALID,0.503534,
2005-12-17, 01:08:00,VALID,917.331,VALID,0,VALID,100,VALID,0.0169808,VALID,19.5311,VALID,246,VALID,0.417515,
2005-12-17, 01:09:00,VALID,917.298,VALID,0,VALID,100,VALID,0.0169808,VALID,19.5373,VALID,248,VALID,0.746652,
2005-12-17, 01:10:00,VALID,917.288,VALID,0,VALID,100,VALID,0,VALID,19.5276,VALID,230,VALID,0.838663,
2005-12-17, 01:11:00,VALID,917.237,VALID,0,VALID,100,VALID,0.0169808,VALID,19.5373,VALID,237,VALID,1.09284,
2005-12-17, 01:12:00,VALID,917.207,VALID,0,VALID,100,VALID,0.0339617,VALID,19.5507,VALID,247,VALID,0.664825,
2005-12-17, 01:13:00,VALID,917.202,VALID,0,VALID,100,VALID,0.0339617,VALID,19.5313,VALID,248,VALID,0.532493,
2005-12-17, 01:14:00,VALID,917.194,VALID,0,VALID,100,VALID,0.0169808,VALID,19.5276,VALID,248,VALID,0.148438,
2005-12-17, 01:15:00,VALID,917.191,VALID,0,VALID,100,VALID,0,VALID,19.5308,VALID,263,VALID,0.237092,
2005-12-17, 01:16:00,VALID,917.188,VALID,0,VALID,100,VALID,0.0169808,VALID,19.5279,VALID,263,VALID,0.322599,
2005-12-17, 01:17:00,VALID,917.164,VALID,0,VALID,100,VALID,0.0339617,VALID,19.5052,VALID,244,VALID,0.732376,
2005-12-17, 01:18:00,VALID,917.149,VALID,0,VALID,100,VALID,0.0169808,VALID,19.4948,VALID,261,VALID,0.331731,
2005-12-17, 01:19:00,VALID,917.106,VALID,0,VALID,100,VALID,0.0169808,VALID,19.4948,VALID,258,VALID,0.673633,
2005-12-17, 01:20:00,VALID,917.104,VALID,0,VALID,100,VALID,0.0339617,VALID,19.4858,VALID,255,VALID,0.305398,
2005-12-17, 01:21:00,VALID,917.088,VALID,0,VALID,100,VALID,0,VALID,19.4759,VALID,255,VALID,0.281994,
2005-12-17, 01:22:00,VALID,917.094,VALID,0,VALID,100,VALID,0.0339617,VALID,19.4923,VALID,255,VALID,0.0868459,
2005-12-17, 01:23:00,VALID,917.113,VALID,0,VALID,100,VALID,0.0169808,VALID,19.4821,VALID,255,VALID,0.0147569,
2005-12-17, 01:24:00,VALID,917.096,VALID,0,VALID,100,VALID,0.0169808,VALID,19.4861,VALID,255,VALID,0,
2005-12-17, 01:25:00,VALID,917.078,VALID,0,VALID,100,VALID,0.0169808,VALID,19.4694,VALID,255,VALID,0,
2005-12-17, 01:26:00,VALID,917.066,VALID,0,VALID,100,VALID,0.0509425,VALID,19.4694,VALID,261,VALID,0.113542,
2005-12-17, 01:27:00,VALID,917.076,VALID,0,VALID,100,VALID,0.0339617,VALID,19.4468,VALID,285,VALID,0.249599,
2005-12-17, 01:28:00,VALID,917.075,VALID,0,VALID,100,VALID,0.0339617,VALID,19.4142,VALID,285,VALID,0.0273438,
2005-12-17, 01:29:00,VALID,917.078,VALID,0,VALID,100,VALID,0.0679233,VALID,19.3911,VALID,285,VALID,0,
2005-12-17, 01:30:00,VALID,917.085,VALID,0,VALID,100,VALID,0.0339617,VALID,19.4023,VALID,285,VALID,0,
2005-12-17, 01:31:00,VALID,917.082,VALID,0,VALID,100,VALID,0.0169808,VALID,19.3859,VALID,285,VALID,0,
2005-12-17, 01:32:00,VALID,917.087,VALID,0,VALID,100,VALID,0.0169808,VALID,19.3498,VALID,285,VALID,0,
2005-12-17, 01:33:00,VALID,917.082,VALID,0,VALID,100,VALID,0.0169808,VALID,19.3177,VALID,285,VALID,0,
2005-12-17, 01:34:00,VALID,917.061,VALID,0,VALID,100,VALID,0.0849042,VALID,19.2937,VALID,285,VALID,0.0125762,
2005-12-17, 01:35:00,VALID,917.047,VALID,0,VALID,100,VALID,0.101885,VALID,19.2969,VALID,285,VALID,0.0325521,
2005-12-17, 01:36:00,VALID,917.063,VALID,0,VALID,100,VALID,0.152827,VALID,19.3031,VALID,263,VALID,0.432528,
2005-12-17, 01:37:00,VALID,917.059,VALID,0,VALID,100,VALID,0.101885,VALID,19.3232,VALID,239,VALID,0.248242,
2005-12-17, 01:38:00,VALID,917.047,VALID,0,VALID,100,VALID,0.135847,VALID,19.3292,VALID,238,VALID,0.354539,
2005-12-17, 01:39:00,VALID,917.04,VALID,0,VALID,100,VALID,0.118866,VALID,19.3446,VALID,245,VALID,0.459293,
2005-12-17, 01:40:00,VALID,917.036,VALID,0,VALID,100,VALID,0.0509425,VALID,19.3583,VALID,245,VALID,0.554865,
2005-12-17, 01:41:00,VALID,917.037,VALID,0,VALID,100,VALID,0.118866,VALID,19.3546,VALID,250,VALID,0.297743,
2005-12-17, 01:42:00,VALID,917.037,VALID,0,VALID,100,VALID,0.135847,VALID,19.3645,VALID,10,VALID,0.270389,
2005-12-17, 01:43:00,VALID,917.03,VALID,0,VALID,100,VALID,0.135847,VALID,19.319,VALID,15,VALID,0.184338,
2005-12-17, 01:44:00,VALID,917.023,VALID,0,VALID,100,VALID,0.118866,VALID,19.2805,VALID,15,VALID,0.374628,
2005-12-17, 01:45:00,VALID,917.02,VALID,0,VALID,100,VALID,0.118866,VALID,19.2708,VALID,15,VALID,0.333031,
2005-12-17, 01:46:00,VALID,917.018,VALID,0,VALID,100,VALID,0.118866,VALID,19.2449,VALID,15,VALID,0.338986,
2005-12-17, 01:47:00,VALID,916.994,VALID,0,VALID,100,VALID,0.135847,VALID,19.2352,VALID,15,VALID,0.143288,
2005-12-17, 01:48:00,VALID,916.984,VALID,0,VALID,100,VALID,0.118866,VALID,19.2253,VALID,15,VALID,0,
2005-12-17, 01:49:00,VALID,916.979,VALID,0,VALID,100,VALID,0.0169808,VALID,19.227,VALID,15,VALID,0,
2005-12-17, 01:50:00,VALID,916.952,VALID,0,VALID,100,VALID,0.0169808,VALID,19.2145,VALID,15,VALID,0,
2005-12-17, 01:51:00,VALID,916.918,VALID,0,VALID,100,VALID,0.0169808,VALID,19.185,VALID,15,VALID,0.147615,
2005-12-17, 01:52:00,VALID,916.89,VALID,0,VALID,100,VALID,0,VALID,19.1688,VALID,51,VALID,0.196023,
2005-12-17, 01:53:00,VALID,916.875,VALID,0,VALID,100,VALID,0.0509425,VALID,19.1556,VALID,150,VALID,0.135045,
2005-12-17, 01:54:00,VALID,916.837,VALID,0,VALID,100,VALID,0.0509425,VALID,19.1626,VALID,150,VALID,0,
2005-12-17, 01:55:00,VALID,916.821,VALID,0,VALID,100,VALID,0.0339617,VALID,19.1529,VALID,150,VALID,0,
2005-12-17, 01:56:00,VALID,916.821,VALID,0,VALID,100,VALID,0,VALID,19.1277,VALID,150,VALID,0,
2005-12-17, 01:57:00,VALID,916.806,VALID,0,VALID,100,VALID,0.0169808,VALID,19.1143,VALID,149,VALID,0.0895712,
2005-12-17, 01:58:00,VALID,916.808,VALID,0,VALID,100,VALID,0.0339617,VALID,19.1109,VALID,133,VALID,0.378162,
2005-12-17, 01:59:00,VALID,916.834,VALID,0,VALID,100,VALID,0.0339617,VALID,19.1106,VALID,126,VALID,0.249047,
2005-12-17, 02:00:00,VALID,916.838,VALID,0,VALID,100,VALID,0.0339617,VALID,19.0878,VALID,126,VALID,0.166016,
2005-12-17, 02:01:00,VALID,916.83,VALID,0,VALID,100,VALID,0.101885,VALID,19.1044,VALID,126,VALID,0,
2005-12-17, 02:02:00,VALID,916.812,VALID,0,VALID,100,VALID,0.0339617,VALID,19.0975,VALID,126,VALID,0.121626,
2005-12-17, 02:03:00,VALID,916.787,VALID,0,VALID,100,VALID,0.0339617,VALID,19.0915,VALID,18,VALID,0.38125,
2005-12-17, 02:04:00,VALID,916.76,VALID,0,VALID,100,VALID,0.0169808,VALID,19.0845,VALID,8,VALID,0.464453,
2005-12-17, 02:05:00,VALID,916.744,VALID,0,VALID,100,VALID,0.0509425,VALID,19.0584,VALID,346,VALID,0.403706,
2005-12-17, 02:06:00,VALID,916.714,VALID,0,VALID,100,VALID,0,VALID,19.0589,VALID,346,VALID,0.0504954,
2005-12-17, 02:07:00,VALID,916.716,VALID,0,VALID,100,VALID,0,VALID,19.0621,VALID,349,VALID,0,
2005-12-17, 02:08:00,VALID,916.714,VALID,0,VALID,100,VALID,0.0169808,VALID,19.0589,VALID,354,VALID,0.182292,
2005-12-17, 02:09:00,VALID,916.709,VALID,0,VALID,100,VALID,0.0509425,VALID,19.0517,VALID,2,VALID,0.162246,
2005-12-17, 02:10:00,VALID,916.702,VALID,0,VALID,100,VALID,0.0509425,VALID,19.0358,VALID,18,VALID,0.295015,
2005-12-17, 02:11:00,VALID,916.698,VALID,0,VALID,100,VALID,0.0339617,VALID,19.0102,VALID,15,VALID,0.179116,
2005-12-17, 02:12:00,VALID,916.668,VALID,0,VALID,100,VALID,0.0169808,VALID,19.0005,VALID,15,VALID,0,
2005-12-17, 02:13:00,VALID,916.662,VALID,0,VALID,100,VALID,0,VALID,18.9813,VALID,15,VALID,0.0832122,
2005-12-17, 02:14:00,VALID,916.613,VALID,0,VALID,100,VALID,0.0169808,VALID,19.0134,VALID,273,VALID,0.418064,
2005-12-17, 02:15:00,VALID,916.577,VALID,0,VALID,100,VALID,0.0509425,VALID,19.0584,VALID,218,VALID,0.268821,
2005-12-17, 02:16:00,VALID,916.577,VALID,0,VALID,100,VALID,0.0679233,VALID,19.0681,VALID,209,VALID,0,
2005-12-17, 02:17:00,VALID,916.603,VALID,0,VALID,100,VALID,0.0339617,VALID,19.036,VALID,209,VALID,0,
2005-12-17, 02:18:00,VALID,916.615,VALID,0,VALID,100,VALID,0.0339617,VALID,19.0263,VALID,209,VALID,0.0558036,
2005-12-17, 02:19:00,VALID,916.613,VALID,0,VALID,100,VALID,0.0849042,VALID,19.0254,VALID,209,VALID,0.153516,
2005-12-17, 02:20:00,VALID,916.614,VALID,0,VALID,100,VALID,0.101885,VALID,18.9931,VALID,26,VALID,0.668679,
2005-12-17, 02:21:00,VALID,916.612,VALID,0,VALID,100,VALID,0.118866,VALID,18.9155,VALID,22,VALID,0.129464,
2005-12-17, 02:22:00,VALID,916.613,VALID,0,VALID,100,VALID,0.101885,VALID,18.8802,VALID,22,VALID,0,
2005-12-17, 02:23:00,VALID,916.629,VALID,0,VALID,100,VALID,0.135847,VALID,18.8606,VALID,22,VALID,0.0710747,
2005-12-17, 02:24:00,VALID,916.643,VALID,0,VALID,100,VALID,0.118866,VALID,18.8278,VALID,22,VALID,0.00118886,
2005-12-17, 02:25:00,VALID,916.649,VALID,0,VALID,100,VALID,0.135847,VALID,18.8151,VALID,22,VALID,0,
2005-12-17, 02:26:00,VALID,916.641,VALID,0,VALID,100,VALID,0.118866,VALID,18.8091,VALID,22,VALID,0,
2005-12-17, 02:27:00,VALID,916.624,VALID,0,VALID,100,VALID,0.0679233,VALID,18.7962,VALID,22,VALID,0,
2005-12-17, 02:28:00,VALID,916.635,VALID,0,VALID,100,VALID,-0.0509425,VALID,18.7891,VALID,22,VALID,0.00685976,
2005-12-17, 02:29:00,VALID,916.631,VALID,0,VALID,100,VALID,-0.101885,VALID,18.7436,VALID,22,VALID,0.307465,
2005-12-17, 02:30:00,VALID,916.64,VALID,0,VALID,100,VALID,-0.0849042,VALID,18.6854,VALID,23,VALID,0.280208,
2005-12-17, 02:31:00,VALID,916.619,VALID,0,VALID,100,VALID,-0.0849042,VALID,18.6471,VALID,46,VALID,0.668501,
2005-12-17, 02:32:00,VALID,916.601,VALID,0,VALID,100,VALID,-0.101885,VALID,18.6501,VALID,63,VALID,0.623326,
2005-12-17, 02:33:00,VALID,916.587,VALID,0,VALID,100,VALID,-0.101885,VALID,18.6434,VALID,60,VALID,0.424733,
2005-12-17, 02:34:00,VALID,916.566,VALID,0,VALID,100,VALID,0.0169808,VALID,18.6231,VALID,45,VALID,0.563072,
2005-12-17, 02:35:00,VALID,916.586,VALID,0,VALID,100,VALID,0.0169808,VALID,18.591,VALID,52,VALID,0.318859,
2005-12-17, 02:36:00,VALID,916.585,VALID,0,VALID,100,VALID,0,VALID,18.5651,VALID,37,VALID,0.200581,
2005-12-17, 02:37:00,VALID,916.57,VALID,0,VALID,100,VALID,0.0169808,VALID,18.5393,VALID,32,VALID,0.0173399,
2005-12-17, 02:38:00,VALID,916.559,VALID,0,VALID,100,VALID,0.0169808,VALID,18.5457,VALID,32,VALID,0.327724,
2005-12-17, 02:39:00,VALID,916.544,VALID,0,VALID,100,VALID,0,VALID,18.5353,VALID,32,VALID,0.000186012,
2005-12-17, 02:40:00,VALID,916.545,VALID,0,VALID,100,VALID,0,VALID,18.5326,VALID,32,VALID,0.126999,
2005-12-17, 02:41:00,VALID,916.545,VALID,0,VALID,100,VALID,0.0169808,VALID,18.5393,VALID,32,VALID,0.26456,
2005-12-17, 02:42:00,VALID,916.551,VALID,0,VALID,100,VALID,0,VALID,18.5388,VALID,32,VALID,0.103468,
2005-12-17, 02:43:00,VALID,916.568,VALID,0,VALID,100,VALID,0,VALID,18.5681,VALID,290,VALID,0.430831,
2005-12-17, 02:44:00,VALID,916.569,VALID,0,VALID,100,VALID,0.0339617,VALID,18.5681,VALID,279,VALID,0.0616508,
2005-12-17, 02:45:00,VALID,916.563,VALID,0,VALID,100,VALID,0,VALID,18.5515,VALID,279,VALID,0.0565044,
2005-12-17, 02:46:00,VALID,916.558,VALID,0,VALID,100,VALID,0.0169808,VALID,18.5617,VALID,341,VALID,0.464648,
2005-12-17, 02:47:00,VALID,916.576,VALID,0,VALID,100,VALID,0.0169808,VALID,18.5102,VALID,11,VALID,0.485137,
2005-12-17, 02:48:00,VALID,916.565,VALID,0,VALID,100,VALID,0,VALID,18.5136,VALID,15,VALID,0.345656,
2005-12-17, 02:49:00,VALID,916.565,VALID,0,VALID,100,VALID,0.0169808,VALID,18.5065,VALID,4,VALID,0.0528274,
2005-12-17, 02:50:00,VALID,916.55,VALID,0,VALID,100,VALID,0.0169808,VALID,18.5259,VALID,186,VALID,0.713299,
2005-12-17, 02:51:00,VALID,916.551,VALID,0,VALID,100,VALID,0,VALID,18.5612,VALID,185,VALID,0.0984738,
2005-12-17, 02:52:00,VALID,916.539,VALID,0,VALID,100,VALID,0.0339617,VALID,18.5547,VALID,39,VALID,0.226944,
2005-12-17, 02:53:00,VALID,916.538,VALID,0,VALID,100,VALID,0.0339617,VALID,18.5683,VALID,39,VALID,0.0416061,
2005-12-17, 02:54:00,VALID,916.517,VALID,0,VALID,100,VALID,0.0679233,VALID,18.5487,VALID,39,VALID,0.0454215,
2005-12-17, 02:55:00,VALID,916.519,VALID,0,VALID,100,VALID,0.0339617,VALID,18.5457,VALID,39,VALID,0.00199468,
2005-12-17, 02:56:00,VALID,916.508,VALID,0,VALID,100,VALID,0.0509425,VALID,18.5416,VALID,39,VALID,0.0149601,
2005-12-17, 02:57:00,VALID,916.49,VALID,0,VALID,100,VALID,0.0509425,VALID,18.5679,VALID,39,VALID,0.0100446,
2005-12-17, 02:58:00,VALID,916.465,VALID,0,VALID,100,VALID,0.0679233,VALID,18.5746,VALID,39,VALID,0.190874,
2005-12-17, 02:59:00,VALID,916.456,VALID,0,VALID,100,VALID,0.0339617,VALID,18.5843,VALID,39,VALID,0.0114462,
2005-12-17, 03:00:00,VALID,916.449,VALID,0,VALID,100,VALID,0.0169808,VALID,18.5873,VALID,39,VALID,0,
2005-12-17, 03:01:00,VALID,916.42,VALID,0,VALID,100,VALID,0,VALID,18.5617,VALID,39,VALID,0,
2005-12-17, 03:02:00,VALID,916.425,VALID,0,VALID,100,VALID,0.0509425,VALID,18.5032,VALID,39,VALID,0.200335,
2005-12-17, 03:03:00,VALID,916.421,VALID,0,VALID,100,VALID,0.0169808,VALID,18.4707,VALID,39,VALID,0,
2005-12-17, 03:04:00,VALID,916.404,VALID,0,VALID,100,VALID,0,VALID,18.4545,VALID,39,VALID,0,
2005-12-17, 03:05:00,VALID,916.406,VALID,0,VALID,100,VALID,0.0509425,VALID,18.4492,VALID,39,VALID,0,
2005-12-17, 03:06:00,VALID,916.399,VALID,0,VALID,100,VALID,0.0339617,VALID,18.4354,VALID,39,VALID,0.059593,
2005-12-17, 03:07:00,VALID,916.404,VALID,0,VALID,100,VALID,0.0169808,VALID,18.4647,VALID,39,VALID,0.200521,
2005-12-17, 03:08:00,VALID,916.405,VALID,0,VALID,100,VALID,0.0169808,VALID,18.4972,VALID,39,VALID,0.0981326,
2005-12-17, 03:09:00,VALID,916.422,VALID,0,VALID,100,VALID,0.0509425,VALID,18.5,VALID,39,VALID,0.0855655,
2005-12-17, 03:10:00,VALID,916.431,VALID,0,VALID,100,VALID,0.0509425,VALID,18.5164,VALID,15,VALID,0.125953,
2005-12-17, 03:11:00,VALID,916.442,VALID,0,VALID,100,VALID,0.0509425,VALID,18.5069,VALID,12,VALID,0.0315972,
2005-12-17, 03:12:00,VALID,916.438,VALID,0,VALID,100,VALID,0.0339617,VALID,18.4393,VALID,12,VALID,0.319247,
2005-12-17, 03:13:00,VALID,916.428,VALID,0,VALID,100,VALID,0.0679233,VALID,18.4324,VALID,12,VALID,0.152148,
2005-12-17, 03:14:00,VALID,916.412,VALID,0,VALID,100,VALID,0.0509425,VALID,18.4225,VALID,12,VALID,0.291853,
2005-12-17, 03:15:00,VALID,916.396,VALID,0,VALID,100,VALID,0.0169808,VALID,18.4038,VALID,12,VALID,0.242006,
2005-12-17, 03:16:00,VALID,916.394,VALID,0,VALID,100,VALID,0,VALID,18.371,VALID,12,VALID,0.00290698,
2005-12-17, 03:17:00,VALID,916.388,VALID,0,VALID,100,VALID,0.0339617,VALID,18.3546,VALID,12,VALID,0,
2005-12-17, 03:18:00,VALID,916.393,VALID,0,VALID,100,VALID,0.0509425,VALID,18.3747,VALID,12,VALID,0.000762195,
2005-12-17, 03:19:00,VALID,916.378,VALID,0,VALID,100,VALID,0.0339617,VALID,18.3707,VALID,12,VALID,0,
2005-12-17, 03:20:00,VALID,916.38,VALID,0,VALID,100,VALID,0.0679233,VALID,18.3578,VALID,12,VALID,0,
2005-12-17, 03:21:00,VALID,916.361,VALID,0,VALID,100,VALID,0.0169808,VALID,18.332,VALID,12,VALID,0,
2005-12-17, 03:22:00,VALID,916.341,VALID,0,VALID,100,VALID,0.0339617,VALID,18.3354,VALID,12,VALID,0,
2005-12-17, 03:23:00,VALID,916.347,VALID,0,VALID,100,VALID,0.0339617,VALID,18.329,VALID,12,VALID,0.0659299,
2005-12-17, 03:24:00,VALID,916.386,VALID,0,VALID,100,VALID,0.0339617,VALID,18.3417,VALID,12,VALID,0.331174,
2005-12-17, 03:25:00,VALID,916.398,VALID,0,VALID,100,VALID,0.0169808,VALID,18.3846,VALID,12,VALID,0.208984,
2005-12-17, 03:26:00,VALID,916.37,VALID,0,VALID,100,VALID,0.0509425,VALID,18.4102,VALID,12,VALID,0.20585,
2005-12-17, 03:27:00,VALID,916.367,VALID,0,VALID,100,VALID,0.0509425,VALID,18.4294,VALID,12,VALID,0.141304,
2005-12-17, 03:28:00,VALID,916.347,VALID,0,VALID,100,VALID,0.0339617,VALID,18.4255,VALID,12,VALID,0.243075,
2005-12-17, 03:29:00,VALID,916.333,VALID,0,VALID,100,VALID,0.0509425,VALID,18.4453,VALID,12,VALID,0.24929,
2005-12-17, 03:30:00,VALID,916.309,VALID,0,VALID,100,VALID,0.0169808,VALID,18.458,VALID,12,VALID,0.0899306,
2005-12-17, 03:31:00,VALID,916.303,VALID,0,VALID,100,VALID,0.0509425,VALID,18.4709,VALID,12,VALID,0.00190549,
2005-12-17, 03:32:00,VALID,916.288,VALID,0,VALID,100,VALID,0.0679233,VALID,18.4453,VALID,12,VALID,0,
2005-12-17, 03:33:00,VALID,916.261,VALID,0,VALID,100,VALID,0.0339617,VALID,18.3486,VALID,12,VALID,0,
2005-12-17, 03:34:00,VALID,916.245,VALID,0,VALID,100,VALID,0.0339617,VALID,18.2477,VALID,12,VALID,0.198552,
2005-12-17, 03:35:00,VALID,916.25,VALID,0,VALID,100,VALID,0.0169808,VALID,18.2353,VALID,12,VALID,0.0310764,
2005-12-17, 03:36:00,VALID,916.251,VALID,0,VALID,100,VALID,0.0509425,VALID,18.271,VALID,12,VALID,0.0756392,
2005-12-17, 03:37:00,VALID,916.24,VALID,0,VALID,100,VALID,0.0509425,VALID,18.2713,VALID,12,VALID,0.0479403,
2005-12-17, 03:38:00,VALID,916.213,VALID,0,VALID,100,VALID,0.0509425,VALID,18.2479,VALID,12,VALID,0.226385,
2005-12-17, 03:39:00,VALID,916.214,VALID,0,VALID,100,VALID,0.0509425,VALID,18.2613,VALID,12,VALID,0.410156,
2005-12-17, 03:40:00,VALID,916.193,VALID,0,VALID,100,VALID,0.0339617,VALID,18.281,VALID,12,VALID,0.0133384,
2005-12-17, 03:41:00,VALID,916.192,VALID,0,VALID,100,VALID,0.0509425,VALID,18.3033,VALID,12,VALID,0.0383185,
2005-12-17, 03:42:00,VALID,916.184,VALID,0,VALID,100,VALID,0.0169808,VALID,18.3135,VALID,3,VALID,0.349479,
2005-12-17, 03:43:00,VALID,916.178,VALID,0,VALID,100,VALID,0.0509425,VALID,18.287,VALID,6,VALID,0.362614,